Terminal Aerodrome Forecast
Issued by NWS Hastings, NE

Home | Current Version | Previous Version | Text Only | Print | Product List | Glossary On
Versions: 1 2 3 4 5 6 7 8 9 10 11 12 13 14 15 16 17 18 19 20 21 22 23 24 25 26 27 28 29
000
FTUS43 KGID 260542
TAFGRI
TAF
KGRI 260542Z 2606/2706 33017G25KT P6SM OVC015
     FM261700 34016G24KT P6SM BKN025
     FM261900 34014G21KT P6SM BKN040
     FM262200 34014G19KT P6SM SCT040
     FM270200 36006KT P6SM SKC=

USA.gov is the U.S. government's official web portal to all federal, state and local government web resources and services.